Regional Weather Roundup
Issued by NWS Austin/San Antonio, TX

Home | Current Version | Previous Version | Text Only | Print | Product List | Glossary On
Versions: 1 2 3 4 5 6 7 8 9 10 11 12 13 14 15 16 17 18 19 20 21 22 23 24 25 26 27 28 29 30 31 32 33 34 35 36 37 38 39 40 41 42 43 44 45 46 47 48 49 50
000
ASUS44 KEWX 271002
RWREWX
SOUTH TEXAS REGIONAL WEATHER ROUNDUP
NATIONAL WEATHER SERVICE AUSTIN/SAN ANTONIO TX
400 AM CST MON JAN 27 2020

NOTE: "FAIR" INDICATED FEW OR NO CLOUDS BELOW 12,000 FEET WITH NO
SIGNIFICANT WEATHER AND/OR OBSTRUCTIONS TO VISIBILITY.

* - THESE STATIONS ARE NOT NWS OR FAA STATIONS...AND ARE NOT SUBJECT
    TO NWS AND FAA QUALITY CONTROL.

TXZ171-172-183>190-271100-
TEXAS HILL COUNTRY AND EDWARDS PLATEAU

CITY           SKY/WX    TMP DP  RH WIND       PRES   REMARKS
JUNCTION       CLEAR     39  36  89 W3        30.01S
*LLANO         CLEAR     45  43  93 CALM      30.04S
BURNET         CLEAR     48  44  86 CALM      30.02S
*HORSESHOE BAY NOT AVBL
*LAGO VISTA    CLEAR     49  48  97 E5        30.00S WCI  47
*KERRVILLE     CLEAR     41  39  91 CALM      30.01S
*FREDERICKSBRG CLEAR     40  38  92 CALM      30.01S
*ROCKSPRINGS   CLEAR     50  39  66 SE8       30.04S WCI  47
*BOERNE        CLEAR     41  41 100 CALM      30.02S
*CASTROVILLE   CLEAR     49  47  94 CALM      30.02R
HONDO          CLEAR     46  43  89 NE6       30.00S WCI  43
*UVALDE        CLEAR     50  44  80 NE7       30.00S WCI  47
DEL RIO        CLEAR     53  39  59 E5        29.96S
*LAUGHLIN AFB  NOT AVBL
*SPOFFORD      NOT AVBL
*EAGLE PASS    CLEAR     46  39  76 E5        29.97S WCI  44
CARRIZO SPRGS  CLEAR     45  37  76 CALM      29.97S
*FAITH RANCH   CLEAR     54  41  62 SE6       29.97S
$$

TXZ173-191>194-202-209-217>225-228-271100-
CENTRAL AND SOUTH CENTRAL TEXAS

CITY           SKY/WX    TMP DP  RH WIND       PRES   REMARKS
GEORGETOWN     CLEAR     44  41  89 CALM      30.02S
*TAYLOR        CLEAR     40  39  97 NW3       30.00F FOG
AUSTIN/BERGSTM CLEAR     42  41  96 CALM      29.99F
AUSTIN/MABRY   CLEAR     51  47  86 CALM      30.00F
*PFLUGERVILLE  CLEAR     46  46 100 CALM      30.00F
SAN MARCOS     CLEAR     45  44  97 NW5       30.00F WCI  43
NEW BRAUNFELS  CLEAR     49  47  93 N3        29.99S
*RANDOLPH AFB  NOT AVBL
*SEGUIN        CLEAR     45  44  97 N5        30.04S WCI  43
SAN ANTONIO    CLEAR     50  46  86 NW3       30.00F
STINSON FIELD  CLEAR     52  48  86 CALM      29.98F
*KELLY FIELD   NOT AVBL
*PLEASANTON    CLEAR     48  44  84 CALM      30.00S
*KENEDY        CLEAR     46  45  93 CALM      30.00F
*LA GRANGE     CLEAR     46  46 100 CALM      29.97F
*GIDDINGS      CLEAR     45  44  97 CALM      30.00F
*GONZALES      CLEAR     49  48  96 CALM      29.99S
$$

TXZ163>164-176>182-195>201-210>213-226-227-235-271100-
SOUTHEAST TEXAS

CITY           SKY/WX    TMP DP  RH WIND       PRES   REMARKS
COLLEGE STN    CLEAR     50  47  89 NE3       30.00S FOG
*BRYAN         CLEAR     47  47 100 NE5       30.02R FOG     WCI  45
*CALDWELL      FOG       45 N/A N/A CALM      30.01S VSB 1
*CROCKETT      NOT AVBL
*BRENHAM       CLEAR     45  45  98 CALM      30.00F FOG
HUNTSVILLE     FOG       53  52  96 CALM      30.01S VSB 1/2
CONROE         FOG       52  51  97 NE3       30.01F VSB 1/2
HOUSTON BUSH   FOG       54  53  97 E6        30.00F VSB 1/2
HOUSTON HOBBY  CLOUDY    57  54  89 NE8       29.99F FOG
*HOUSTON SW AP CLOUDY    57  56  98 E6        30.01S
PEARLAND       CLOUDY    57  54  89 E6        30.01F
HOUSTON HOOKS  FOG       53  51  93 E7        30.00F VSB 1/2
ELLINGTON FLD  NOT AVBL
SUGAR LAND     CLOUDY    57  57 100 E3        29.99S
*HOUSTON EXEC  CLOUDY    54  54 100 E6        30.01S FOG
*CLEVELAND MUN FOG       53  52  99 CALM      30.03S VSB 1
*WHARTON       CLOUDY    53  51  91 NE3       30.01S FOG
*COLUMBUS      FAIR      46  41  85 CALM      30.00F
*EAGLE LAKE    CLEAR     50  49  96 CALM      29.99F
$$

TXZ214>216-236>238-271100-
THE UPPER TEXAS COAST

CITY           SKY/WX    TMP DP  RH WIND       PRES   REMARKS
*ORANGE        CLOUDY    56  53  89 N3        30.03R
PORT ARTHUR    CLOUDY    54  51  90 N7        30.00S
GALVESTON      CLOUDY    58  55  90 NE7       30.01S
ANGLETON       CLOUDY    58  55  90 NE7       30.00S
*BAY CITY      FOG       57  57 100 CALM      29.99S VSB 1/2
PALACIOS       FOG       54  53  97 NE6       29.98S VSB 1/4
$$

TXZ229>234-239>247-271100-
TEXAS COASTAL BEND AND RIO GRANDE PLAINS

CITY           SKY/WX    TMP DP  RH WIND       PRES   REMARKS
VICTORIA       CLEAR     50  48  93 CALM      29.99S
*BEEVILLE      NOT AVBL
ROCKPORT       FOG       56  52  86 CALM      29.98S VSB 1/4
*PORT ARANSAS  FOG       55  55  98 CALM      30.00R VSB 1/4
*PORT LAVACA   NOT AVBL
*INGLESIDE     FOG       53  52  98 CALM      29.98S VSB 1/4
CORPUS CHRISTI FOG       50  49  96 W7        29.99R VSB 1/4 WCI  47
CORPUS NAS     FOG       55  55 100 CALM      29.97S VSB 1/4
*ROBSTOWN      FOG       52  51  97 NW5       29.99S VSB 1/4
ALICE          PTCLDY    53  53 100 CALM      29.98S FOG
KINGSVILLE NAS FOG       54  53  97 W6        29.99R VSB 1/2
COTULLA        CLEAR     54  49  83 E3        29.98S
LAREDO         CLEAR     57  54  89 SE5       29.97S
$$

TXZ248>255-271100-
DEEP SOUTH TEXAS

CITY           SKY/WX    TMP DP  RH WIND       PRES   REMARKS
BROWNSVILLE    CLOUDY    59  58  96 CALM      29.98S FOG
PORT ISABEL    CLOUDY    56  55  97 NW6       29.97S FOG
HARLINGEN      FOG       61  61 100 W3        29.98S VSB 1/4
*HEBBRONVILLE  RAIN      51  50  98 W3        29.99F VSB 1/4
MCALLEN        CLOUDY    60  58  92 SE6       29.99S FOG
*WESLACO       CLOUDY    59  57  92 CALM      29.98S FOG
FALFURRIAS     CLOUDY    56  54  93 CALM      29.99S VSB 1/4
EDINBURG       CLOUDY    59  57  95 S3        29.99S FOG
*ZAPATA        FAIR      50  44  80 CALM      29.98F
$$

TXZ213>215-236>238-242>244-246-247-251-254-255-271100-
CMAN STATIONS

STATION/POSITION TIME  TEMP    WIND        PRES    WAVE
                       AIR SEA DIR/SP/G            HT/PER
                 (UTC) (F)     (DEG/KT/KT) (MB)    (FT/S)
SABINE PASS      0930   54 61   30/  7/  8 1017.7
SEA RIM ST PARK  0900   55      10/  7/  8 1015.9
NORTH JETTY/GLS  0930   56 60   30/  6/  8 1015.0
EAGLE POINT      0930   56 61   40/  7/  9 1015.6
MORGANS POINT    0930   55 60   10/  2/  3 1016.2
PORT O`CONNOR    0930   60 63  120/  5/  7 1014.8
PORT ARANSAS     0900   61 61  140/  2/  2 1014.7
MALAQUITE BEACH  0930   60 63   60/  2/  2 1014.7
BAFFIN BAY       0930   62 66  160/  3/  4 1015.2
PORT ISABEL      0930   59 66  260/  4/  6 1015.3
$$




USA.gov is the U.S. government's official web portal to all federal, state and local government web resources and services.